Weather History for KWDG - September, 2013

Change the Weather History Date:

Tuesday, September 24, 2013

  Actual Average Record
Temperature  
Mean Temperature 72 °F -  
Max Temperature 86 °F 78 °F 95 °F (2012)
Min Temperature 55 °F 57 °F 48 °F (2000)
Cooling Degree Days 6    
Growing Degree Days 22 (Base 50)    
Moisture  
Dew Point 51 °F    
Average Humidity 63    
Maximum Humidity 88    
Minimum Humidity 23    
Precipitation  
Precipitation 0.00 in - - ()
Sea Level Pressure  
Sea Level Pressure 29.90 in    
Wind  
Wind Speed 7 mph (WNW)    
Max Wind Speed 21 mph    
Max Gust Speed 29 mph    
Visibility 10 miles    
Events      
Averages and records for this station are not official NWS values.
T = Trace of Precipitation, MM = Missing Value Source: NWS Daily Summary

Daily Weather History Graph

Daily Weather History Graph

Search for Another Location

Airport or City:

Trip Planner

Search our weather history database for the weather conditions in past years. The results will help you decide how hot, cold, wet, or windy it might be!

Date:

Astronomy

Sep. 24, 2013 Rise Set
Actual Time 7:20 AM CDT 7:24 PM CDT
Civil Twilight 6:55 AM CDT 7:50 PM CDT
Nautical Twilight 6:25 AM CDT 8:20 PM CDT
Astronomical Twilight 5:54 AM CDT 8:50 PM CDT
Moon 10:52 PM CDT (9/24) 12:28 PM CDT (9/24)
Length of Visible Light 12h 55m
Length of Day
12h 03m
Waning Gibbous, 73% of the Moon is Illuminated
Sep 24
Waning Gibbous
Sep 26
Last Quarter
Oct 4
New
Oct 11
First Quarter
Oct 18
Full

Hourly Weather History & Observations

Time (CDT) Temp. Dew Point Humidity Pressure Visibility Wind Dir Wind Speed Gust Speed Precip Events Conditions
12:15 AM 66.2 °F 53.6 °F 64% 29.86 in 10.0 mi WSW 3.5 mph - N/A   Clear
12:35 AM 64.4 °F 53.6 °F 68% 29.86 in 10.0 mi Calm Calm - N/A   Clear
12:55 AM 64.4 °F 53.6 °F 68% 29.86 in 10.0 mi WSW 3.5 mph - N/A   Clear
1:15 AM 64.4 °F 53.6 °F 68% 29.86 in 10.0 mi West 4.6 mph - N/A   Clear
1:35 AM 62.6 °F 51.8 °F 68% 29.86 in 10.0 mi West 3.5 mph - N/A   Clear
1:55 AM 62.6 °F 51.8 °F 68% 29.87 in 10.0 mi West 5.8 mph - N/A   Clear
2:35 AM 62.6 °F 50.0 °F 63% 29.87 in 10.0 mi West 5.8 mph - N/A   Clear
2:55 AM 62.6 °F 50.0 °F 63% 29.88 in 10.0 mi West 6.9 mph - N/A   Clear
3:15 AM 60.8 °F 50.0 °F 68% 29.89 in 10.0 mi West 4.6 mph - N/A   Clear
3:35 AM 59.0 °F 50.0 °F 72% 29.89 in 10.0 mi West 4.6 mph - N/A   Clear
3:55 AM 59.0 °F 50.0 °F 72% 29.89 in 10.0 mi West 3.5 mph - N/A   Clear
4:35 AM 59.0 °F 50.0 °F 72% 29.90 in 10.0 mi West 5.8 mph - N/A   Clear
4:55 AM 59.0 °F 50.0 °F 72% 29.90 in 10.0 mi West 5.8 mph - N/A   Clear
5:15 AM 59.0 °F 50.0 °F 72% 29.91 in 10.0 mi West 6.9 mph - N/A   Clear
5:35 AM 57.2 °F 50.0 °F 77% 29.91 in 10.0 mi West 6.9 mph - N/A   Clear
5:55 AM 57.2 °F 50.0 °F 77% 29.92 in 10.0 mi West 6.9 mph - N/A   Clear
6:22 AM 59.0 °F 50.0 °F 72% 29.92 in 10.0 mi West 6.9 mph - N/A   Clear
6:50 AM 57.2 °F 50.0 °F 77% 29.92 in 10.0 mi WSW 6.9 mph - N/A   Clear
7:50 AM 57.2 °F 50.0 °F 77% 29.94 in 10.0 mi West 3.5 mph - N/A   Clear
8:50 AM 64.4 °F 50.0 °F 59% 29.94 in 10.0 mi West 17.3 mph - N/A   Clear
9:50 AM 69.8 °F 50.0 °F 49% 29.96 in 10.0 mi NW 18.4 mph 26.5 mph N/A   Clear
10:50 AM 73.4 °F 51.8 °F 47% 29.96 in 10.0 mi NNW 18.4 mph 25.3 mph N/A   Clear
11:55 AM 77.0 °F 50.0 °F 39% 29.95 in 10.0 mi NW 18.4 mph - N/A   Clear
12:50 PM 80.6 °F 50.0 °F 34% 29.94 in 10.0 mi NW 20.7 mph 27.6 mph N/A   Clear
1:50 PM 82.4 °F 50.0 °F 32% 29.92 in 10.0 mi NW 20.7 mph 27.6 mph N/A   Clear
2:50 PM 84.2 °F 48.2 °F 29% 29.91 in 10.0 mi NW 20.7 mph 27.6 mph N/A   Clear
3:50 PM 86.0 °F 44.6 °F 23% 29.89 in 10.0 mi NW 19.6 mph 28.8 mph N/A   Clear
5:50 PM 84.2 °F 44.6 °F 25% 29.88 in 10.0 mi NNW 19.6 mph 28.8 mph N/A   Clear
6:50 PM 80.6 °F 46.4 °F 30% 29.88 in 10.0 mi NNW 13.8 mph - N/A   Clear
8:50 PM 64.4 °F 51.8 °F 64% 29.89 in 10.0 mi North 9.2 mph - N/A   Clear
9:15 PM 62.6 °F 51.8 °F 68% 29.90 in 7.0 mi NNE 3.5 mph - N/A   Clear
9:35 PM 60.8 °F 53.6 °F 77% 29.91 in 5.0 mi North 4.6 mph - N/A   Haze
9:55 PM 60.8 °F 53.6 °F 77% 29.91 in 10.0 mi North 4.6 mph - N/A   Clear
10:15 PM 60.8 °F 51.8 °F 72% 29.91 in 10.0 mi North 5.8 mph - N/A   Clear
10:35 PM 60.8 °F 51.8 °F 72% 29.92 in 10.0 mi North 4.6 mph - N/A   Clear
10:55 PM 59.0 °F 51.8 °F 77% 29.92 in 10.0 mi North 5.8 mph - N/A   Clear
11:15 PM 59.0 °F 51.8 °F 77% 29.92 in 10.0 mi North 3.5 mph - N/A   Clear
11:35 PM 57.2 °F 51.8 °F 82% 29.91 in 10.0 mi NNE 4.6 mph - N/A   Clear
11:55 PM 55.4 °F 51.8 °F 88% 29.91 in 10.0 mi Calm Calm - N/A   Clear